SCP
0 0 0 0 0 0 0 0 0 0 0 0 0 0 0 0 0 0 0 0 0 0 0 0 0 0 0 0 0 0 0 0 0 0 0 0 0 0 0 0 0 0 0 0
0 0 0 0 0 0 0 0 0 0 0 0 0 0 0 0 0 0 0 0 0 0 0 0 0 0 0 0 0 0 0 0 0 0 0 0 0 0 0 0 0 0 0 0
0 0 0 0 0 0 0 0 0 0 0 0 0 0 0 0 0 0 0 0 0 0 0 0 0 0 0 0 0 0 0 0 0 0 0 0 0 0 0 0 0 0 0 0
0 0 0 0 0 0 0 0 0 0 0 0 0 0 0 0 0 0 0 0 0 0 0 0 0 0 0 0 0 0 0 0 0 0 0 0 0 0 0 0 0 0 0 0
0 0 0 0 0 0 0 0 0 0 0 0 0 0 0 0 0 0 0 0 0 0 0 0 0 0 0 0 0 0 0 0 0 0 0 0 0 0 0 0 0 0 0 0
0 0 0 0 0 0 0 0 0 0 0 0 0 0 0 0 0 0 0 0 0 0 0 0 0 0 0 0 0 0 0 0 0 0 0 0 0 0 0 0 0 0 0 0
0 0 0 0 0 0 0 0 0 0 0 0 0 0 0 0 0 0 0 0 0 0 0 0 0 0 0 0 0 0 0 0 0 0 0 0 0 0 0 0 0 0 0 0
0 0 0 0 0 0 0 0 0 0 0 0 0 0 0 0 0 0 0 0 0 0 0 0 0 0 0 0 0 0 0 0 0 0 0 0 0 0 0 0 0 0 0 0
0 0 0 0 0 0 0 0 0 0 0 0 0 0 0 0 0 0 0 0 0 0 0 0 0 0 0 0 0 0 0 0 0 0 0 0 0 0 0 0 0 0 0 0
0 0 0 0 0 0 0 0 0 0 0 0 0 0 0 0 0 0 0 0 0 0 0 0 0 0 0 0 0 0 0 0 0 0 0 0 0 0 0 0 0 0 0 0
0 0 0 0 0 0 0 0 0 0 0 0 0 0 0 0 0 0 0 0 0 0 0 0 0 0 0 0 0 0 0 0 0 0 0 0 0 0 0 0 0 0 0 0
0 0 0 0 0 0 0 0 0 0 0 0 0 0 0 0 0 0 0 0 0 0 0 0 0 0 0 0 0 0 0 0 0 0 0 0 0 0 0 0 0 0 0 0
0 0 0 0 0 0 0 0 0 0 0 0 0 0 0 0 0 0 0 0 0 0 0 0 0 0 0 0 0 0 0 0 0 0 0 0 0 0 0 0 0 0 0 0
0 0 0 0 0 0 0 0 0 0 0 0 0 0 0 0 0 0 0 0 0 0 0 0 0 0 0 0 0 0 0 0 0 0 0 0 0 0 0 0 0 0 0 0
0 0 0 0 0 0 0 0 0 0 0 0 0 0 0 0 0 0 0 0 0 0 0 0 0 0 0 0 0 0 0 0 0 0 0 0 0 0 0 0 0 0 0 0
0 0 0 0 0 0 0 0 0 0 0 0 0 0 0 0 0 0 0 0 0 0 0 0 0 0 0 0 0 0 0 0 0 0 0 0 0 0 0 0 0 0 0 0
0 0 0 0 0 0 0 0 0 0 0 0 0 0 0 0 0 0 0 0 0 0 0 0 0 0 0 0 0 0 0 0 0 0 0 0 0 0 0 0 0 0 0 0
0 0 0 0 0 0 0 0 0 0 0 0 0 0 0 0 0 0 0 0 0 0 0 0 0 0 0 0 0 0 0 0 0 0 0 0 0 0 0 0 0 0 0 0
0 0 0 0 0 0 0 0 0 0 0 0 0 0 0 0 0 0 0 0 0 0 0 0 0 0 0 0 0 0 0 0 0 0 0 0 0 0 0 0 0 0 0 0
0 0 0 0 0 0 0 0 0 0 0 0 0 0 0 0 0 0 0 0 0 0 0 0 0 0 0 0 0 0 0 0 0 0 0 0 0 0 0 0 0 0 0 0
0 0 0 0 0 0 0 0 0 0 0 0 0 0 0 0 0 0 0 0 0 0 0 0 0 0 0 0 0 0 0 0 0 0 0 0 0 0 0 0 0 0 0 0
0 0 0 0 0 0 0 0 0 0 0 0 0 0 0 0 0 0 0 0 0 0 0 0 0 0 0 0 0 0 0 0 0 0 0 0 0 0 0 0 0 0 0 0
0 0 0 0 0 0 0 0 0 0 0 0 0 0 0 0 0 0 0 0 0 0 0 0 0 0 0 0 0 0 0 0 0 0 0 0 0 0 0 0 0 0 0 0
0 0 0 0 0 0 0 0 0 0 0 0 0 0 0 0 0 0 0 0 0 0 0 0 0 0 0 0 0 0 0 0 0 0 0 0 0 0 0 0 0 0 0 0
0 0 0 0 0 0 0 0 0 0 0 0 0 0 0 0 0 0 0 0 0 0 0 0 0 0 0 0 0 0 0 0 0 0 0 0 0 0 0 0 0 0 0 0
0 0 0 0 0 0 0 0 0 0 0 0 0 0 0 0 0 0 0 0 0 0 0 0 0 0 0 0 0 0 0 0 0 0 0 0 0 0 0 0 0 0 0 0
0 0 0 0 0 0 0 0 0 0 0 0 0 0 0 0 0 0 0 0 0 0 0 0 0 0 0 0 0 0 0 0 0 0 0 0 0 0 0 0 0 0 0 0
Wind_Speed_500mb
11 31 32 50 53 45 39 48 23 41 38 23 12 9 14 14 15 19 23 24 24 32 31 34 37 42 35 36 35 33 34 38 43 50 57 58 58 57 57 62 66 69 71 70
11 12 33 41 41 46 57 57 32 12 22 13 11 6 10 15 22 25 20 20 24 32 39 43 47 46 37 33 32 31 31 31 34 39 45 50 50 52 55 60 64 70 76 72
4 7 17 2 54 54 50 42 49 26 27 13 13 11 14 24 25 17 23 27 37 43 41 43 40 34 31 31 35 34 30 30 33 36 39 40 44 49 52 58 60 59 63 68
6 6 5 13 41 40 47 46 49 38 9 17 27 32 25 22 21 31 35 39 42 37 35 30 32 30 29 27 28 29 29 30 31 34 37 39 42 46 49 48 49 49 50 58
12 12 7 7 11 41 33 34 41 50 30 35 45 36 37 32 33 28 30 29 26 20 17 17 19 18 19 18 20 25 28 27 29 33 36 39 37 38 40 41 41 43 48 57
8 12 21 2 18 50 13 13 29 37 34 39 41 20 7 23 18 11 11 9 8 7 4 6 8 10 11 11 12 14 18 23 29 32 35 36 34 35 37 36 39 43 47 55
11 9 13 12 15 54 17 14 40 65 55 39 13 24 21 21 15 12 8 9 8 6 7 8 8 8 9 10 13 16 20 23 25 28 30 31 33 35 36 38 40 41 45 50
6 5 21 24 29 31 13 8 25 31 46 45 39 33 34 26 19 17 14 10 10 12 12 12 12 11 12 12 14 16 17 20 23 24 27 30 33 33 37 43 44 45 47 46
24 12 8 62 45 31 39 33 29 40 37 45 46 37 34 29 29 25 19 14 12 12 13 12 12 14 16 17 18 19 20 20 19 19 20 21 25 29 36 40 44 47 49 52
10 10 16 52 24 40 38 47 46 40 43 40 47 42 38 35 33 27 22 16 13 10 9 10 12 13 15 17 20 23 24 25 25 22 20 20 25 28 32 35 39 44 49 52
2 3 14 37 43 61 39 40 46 40 37 38 45 46 41 37 30 24 20 16 13 9 8 11 14 14 14 14 15 16 19 20 22 24 23 22 22 23 24 27 33 39 43 47
10 33 21 43 70 51 54 51 49 51 47 42 42 45 43 36 28 24 21 19 16 15 14 16 17 18 19 19 20 22 24 25 27 28 28 29 28 26 28 29 30 34 40 45
2 46 28 41 63 57 56 50 48 45 46 52 44 40 42 41 34 28 25 20 16 15 15 17 18 19 21 23 25 26 27 28 28 28 29 30 31 33 33 28 29 29 30 35
29 32 30 45 36 57 57 55 51 48 47 43 46 44 41 38 35 28 24 21 19 17 16 16 18 17 19 21 23 24 27 29 32 33 33 33 33 33 33 34 34 31 27 33
14 1 18 36 52 57 56 58 56 55 52 50 45 43 38 37 35 33 28 24 20 14 12 13 13 15 18 20 22 25 27 29 31 33 34 36 36 36 35 34 34 34 35 34
17 15 30 44 59 59 60 59 60 58 53 53 49 46 42 37 34 32 27 21 18 13 12 13 14 18 19 21 24 26 28 29 32 34 34 35 36 38 39 39 40 40 39 37
16 26 35 49 56 58 55 55 54 56 55 52 48 44 39 34 32 30 28 25 19 15 14 11 12 15 16 17 19 23 25 28 30 33 36 37 38 40 41 43 44 43 43 42
19 23 32 46 53 54 54 55 54 52 51 48 45 40 35 30 27 27 23 20 18 16 14 9 8 10 13 17 21 25 29 32 34 36 38 40 42 43 43 43 43 45 44 44
26 31 39 45 46 50 51 48 45 42 41 39 35 33 30 27 25 24 23 21 16 10 6 4 7 11 16 20 24 28 32 35 38 42 44 47 49 50 50 51 52 51 52 52
34 37 38 42 41 39 39 38 34 32 33 32 31 30 28 28 27 23 19 12 6 1 4 9 14 18 22 27 30 34 39 44 47 50 52 53 53 54 54 55 56 57 58 58
31 32 37 38 39 37 35 34 31 29 28 27 26 25 24 22 19 14 10 8 9 12 15 20 23 27 30 34 38 43 47 50 51 52 53 53 54 54 55 56 56 58 58 58
25 26 28 30 30 32 30 28 27 26 26 26 26 23 20 17 14 12 13 15 17 22 26 29 32 37 40 43 45 48 50 50 50 49 49 48 47 47 48 50 52 52 51 52
18 19 21 22 23 24 24 22 22 21 20 18 16 14 13 13 14 16 20 23 26 31 35 38 42 45 47 49 51 53 53 52 51 50 48 48 47 47 47 46 46 48 50 50
15 15 15 15 15 14 14 13 12 12 11 11 13 14 15 18 22 24 29 33 37 40 42 45 48 52 54 54 54 53 53 52 52 51 50 49 47 46 43 44 43 43 43 44
10 10 9 8 7 7 6 7 8 10 13 14 17 19 21 24 28 31 35 38 42 45 48 51 54 56 57 58 58 57 55 54 53 53 51 49 47 46 45 44 42 42 42 39
8 6 5 3 3 6 8 10 13 15 17 19 23 26 30 32 36 39 43 47 50 54 57 57 57 58 59 58 58 58 57 55 54 52 52 51 52 49 47 46 45 45 44 43
12 11 11 12 12 15 17 20 22 25 30 33 35 36 40 43 47 50 53 54 54 55 56 54 53 54 55 56 57 56 57 56 55 56 55 55 53 54 54 53 52 51 50 49
Wind_Direction_500mb
164 160 167 179 183 183 198 218 188 229 225 223 190 198 151 178 248 289 302 304 317 331 333 331 331 330 316 308 301 294 284 272 261 253 255 253 253 253 252 248 248 250 253 253
2 162 165 184 184 191 201 214 224 242 270 196 180 183 203 268 287 286 300 302 311 316 317 317 316 315 308 304 302 290 280 275 266 258 256 258 256 256 254 251 250 249 247 250
156 79 88 326 199 199 209 206 216 210 226 120 126 144 191 243 263 269 275 290 302 306 306 307 307 304 297 296 292 291 282 269 262 263 260 260 264 265 263 262 260 255 251 246
138 114 190 251 179 204 210 208 217 233 203 194 205 237 250 250 272 278 284 287 287 290 296 294 294 297 289 289 288 282 274 267 265 266 269 270 269 269 268 264 262 258 252 247
149 209 284 206 210 190 182 222 218 224 226 231 246 256 258 266 268 269 275 275 280 291 297 294 292 295 293 303 303 297 289 279 274 273 275 275 276 276 276 273 266 258 256 249
149 158 210 216 173 181 100 263 204 209 214 219 218 228 188 226 245 237 249 258 260 271 293 310 316 311 299 297 295 288 278 271 265 265 267 271 275 274 273 268 267 260 259 252
176 208 262 201 165 131 147 234 196 205 209 199 178 214 198 189 181 184 177 140 112 105 71 40 15 351 330 321 312 302 289 279 270 265 267 270 271 270 268 268 263 261 259 254
128 152 253 168 146 156 193 162 173 175 199 195 190 174 173 173 182 177 164 144 136 104 77 53 37 25 20 4 353 334 318 311 304 296 287 279 275 272 266 267 267 264 260 256
190 192 211 170 170 180 176 165 172 169 174 181 172 172 177 178 174 166 156 152 130 104 86 67 43 20 8 359 347 337 331 327 319 308 298 289 282 279 276 271 271 269 265 261
108 205 167 184 170 174 178 183 170 167 163 171 175 176 172 169 165 163 153 147 118 100 86 68 54 28 7 357 346 338 336 334 329 327 329 319 304 294 285 282 280 278 276 271
103 11 81 182 194 197 183 178 174 169 169 169 168 165 170 167 164 157 151 141 135 120 88 61 45 30 19 5 354 349 347 344 338 335 335 331 326 320 310 301 291 288 284 279
215 175 173 196 196 192 187 179 179 172 165 166 174 168 164 159 152 147 139 125 114 93 74 63 49 33 26 20 14 12 11 8 5 360 353 344 338 333 330 323 312 302 294 287
357 185 185 193 193 188 183 175 170 170 171 168 163 167 163 158 149 140 129 116 101 87 77 70 60 54 44 36 32 27 22 20 18 14 8 0 353 345 339 334 325 317 306 297
115 127 123 162 171 183 182 171 168 162 162 162 161 155 154 150 143 142 135 125 114 103 91 70 52 42 43 34 32 28 22 19 16 15 13 12 8 2 355 347 342 336 323 312
55 51 190 172 169 167 168 162 158 155 155 152 154 155 154 151 145 141 137 129 117 102 85 73 66 57 44 39 28 24 23 19 16 14 11 7 5 1 357 353 346 340 336 332
52 131 150 164 161 160 162 160 160 151 154 153 154 150 148 147 144 142 139 134 119 121 95 73 57 56 49 37 29 21 16 14 9 3 2 360 357 355 352 349 345 341 337 334
115 94 137 143 152 151 153 157 156 152 151 149 148 147 146 145 143 141 137 132 128 121 103 88 67 49 31 22 14 7 4 359 0 354 351 350 348 347 344 342 339 337 334 330
105 119 147 149 143 143 141 145 146 147 148 150 152 151 148 144 144 143 143 142 139 125 109 91 51 19 5 358 352 350 347 345 342 339 339 336 335 334 332 330 328 325 323 320
116 124 133 136 135 138 135 137 141 142 140 140 142 147 150 149 147 145 144 141 138 124 95 40 356 342 334 331 329 327 326 325 324 322 321 320 319 318 317 317 316 314 313 311
109 120 128 129 129 132 131 129 130 137 140 140 143 142 145 148 149 149 146 148 152 189 298 299 306 309 309 310 311 313 315 315 316 315 314 312 311 311 312 312 311 311 311 310
101 109 117 124 127 128 130 133 138 141 143 148 149 150 149 152 160 172 188 217 248 273 285 291 292 294 299 302 306 308 310 310 311 311 310 311 311 312 313 313 312 312 310 308
94 105 112 118 124 127 129 133 137 142 152 164 167 169 174 180 196 216 242 258 268 277 282 286 290 293 296 297 299 302 304 305 305 306 306 307 309 312 315 317 317 316 313 311
85 98 109 119 125 131 138 146 160 168 169 172 179 189 203 224 239 253 262 269 275 278 283 287 289 291 294 297 299 301 302 302 301 300 300 302 306 309 311 313 315 315 315 313
79 87 94 110 123 139 147 155 171 185 201 216 232 239 244 253 261 266 271 275 278 280 283 285 288 289 291 292 293 293 294 294 294 295 297 299 301 302 304 306 308 311 312 311
68 85 97 115 139 154 177 213 231 237 243 251 260 265 269 272 273 276 277 279 281 284 286 288 289 289 290 291 291 291 291 291 290 290 291 292 294 297 300 302 304 305 306 307
19 13 8 342 292 258 259 265 273 272 272 273 279 281 281 280 279 280 282 284 286 288 288 289 289 289 290 290 291 291 291 290 290 290 290 293 295 296 296 298 299 301 303 305
343 337 329 314 304 298 295 293 285 283 282 281 281 284 283 283 283 284 283 284 284 284 285 286 287 288 289 290 290 290 290 290 291 292 291 292 292 294 295 295 296 297 298 299
Wind_Speed_850mb
11 31 32 50 53 45 39 48 23 41 38 23 12 9 14 14 15 19 23 24 24 32 31 34 37 42 35 36 35 33 34 38 43 50 57 58 58 57 57 62 66 69 71 70
11 12 33 41 41 46 57 57 32 12 22 13 11 6 10 15 22 25 20 20 24 32 39 43 47 46 37 33 32 31 31 31 34 39 45 50 50 52 55 60 64 70 76 72
4 7 17 2 54 54 50 42 49 26 27 13 13 11 14 24 25 17 23 27 37 43 41 43 40 34 31 31 35 34 30 30 33 36 39 40 44 49 52 58 60 59 63 68
6 6 5 13 41 40 47 46 49 38 9 17 27 32 25 22 21 31 35 39 42 37 35 30 32 30 29 27 28 29 29 30 31 34 37 39 42 46 49 48 49 49 50 58
12 12 7 7 11 41 33 34 41 50 30 35 45 36 37 32 33 28 30 29 26 20 17 17 19 18 19 18 20 25 28 27 29 33 36 39 37 38 40 41 41 43 48 57
8 12 21 2 18 50 13 13 29 37 34 39 41 20 7 23 18 11 11 9 8 7 4 6 8 10 11 11 12 14 18 23 29 32 35 36 34 35 37 36 39 43 47 55
11 9 13 12 15 54 17 14 40 65 55 39 13 24 21 21 15 12 8 9 8 6 7 8 8 8 9 10 13 16 20 23 25 28 30 31 33 35 36 38 40 41 45 50
6 5 21 24 29 31 13 8 25 31 46 45 39 33 34 26 19 17 14 10 10 12 12 12 12 11 12 12 14 16 17 20 23 24 27 30 33 33 37 43 44 45 47 46
24 12 8 62 45 31 39 33 29 40 37 45 46 37 34 29 29 25 19 14 12 12 13 12 12 14 16 17 18 19 20 20 19 19 20 21 25 29 36 40 44 47 49 52
10 10 16 52 24 40 38 47 46 40 43 40 47 42 38 35 33 27 22 16 13 10 9 10 12 13 15 17 20 23 24 25 25 22 20 20 25 28 32 35 39 44 49 52
2 3 14 37 43 61 39 40 46 40 37 38 45 46 41 37 30 24 20 16 13 9 8 11 14 14 14 14 15 16 19 20 22 24 23 22 22 23 24 27 33 39 43 47
10 33 21 43 70 51 54 51 49 51 47 42 42 45 43 36 28 24 21 19 16 15 14 16 17 18 19 19 20 22 24 25 27 28 28 29 28 26 28 29 30 34 40 45
2 46 28 41 63 57 56 50 48 45 46 52 44 40 42 41 34 28 25 20 16 15 15 17 18 19 21 23 25 26 27 28 28 28 29 30 31 33 33 28 29 29 30 35
29 32 30 45 36 57 57 55 51 48 47 43 46 44 41 38 35 28 24 21 19 17 16 16 18 17 19 21 23 24 27 29 32 33 33 33 33 33 33 34 34 31 27 33
14 1 18 36 52 57 56 58 56 55 52 50 45 43 38 37 35 33 28 24 20 14 12 13 13 15 18 20 22 25 27 29 31 33 34 36 36 36 35 34 34 34 35 34
17 15 30 44 59 59 60 59 60 58 53 53 49 46 42 37 34 32 27 21 18 13 12 13 14 18 19 21 24 26 28 29 32 34 34 35 36 38 39 39 40 40 39 37
16 26 35 49 56 58 55 55 54 56 55 52 48 44 39 34 32 30 28 25 19 15 14 11 12 15 16 17 19 23 25 28 30 33 36 37 38 40 41 43 44 43 43 42
19 23 32 46 53 54 54 55 54 52 51 48 45 40 35 30 27 27 23 20 18 16 14 9 8 10 13 17 21 25 29 32 34 36 38 40 42 43 43 43 43 45 44 44
26 31 39 45 46 50 51 48 45 42 41 39 35 33 30 27 25 24 23 21 16 10 6 4 7 11 16 20 24 28 32 35 38 42 44 47 49 50 50 51 52 51 52 52
34 37 38 42 41 39 39 38 34 32 33 32 31 30 28 28 27 23 19 12 6 1 4 9 14 18 22 27 30 34 39 44 47 50 52 53 53 54 54 55 56 57 58 58
31 32 37 38 39 37 35 34 31 29 28 27 26 25 24 22 19 14 10 8 9 12 15 20 23 27 30 34 38 43 47 50 51 52 53 53 54 54 55 56 56 58 58 58
25 26 28 30 30 32 30 28 27 26 26 26 26 23 20 17 14 12 13 15 17 22 26 29 32 37 40 43 45 48 50 50 50 49 49 48 47 47 48 50 52 52 51 52
18 19 21 22 23 24 24 22 22 21 20 18 16 14 13 13 14 16 20 23 26 31 35 38 42 45 47 49 51 53 53 52 51 50 48 48 47 47 47 46 46 48 50 50
15 15 15 15 15 14 14 13 12 12 11 11 13 14 15 18 22 24 29 33 37 40 42 45 48 52 54 54 54 53 53 52 52 51 50 49 47 46 43 44 43 43 43 44
10 10 9 8 7 7 6 7 8 10 13 14 17 19 21 24 28 31 35 38 42 45 48 51 54 56 57 58 58 57 55 54 53 53 51 49 47 46 45 44 42 42 42 39
8 6 5 3 3 6 8 10 13 15 17 19 23 26 30 32 36 39 43 47 50 54 57 57 57 58 59 58 58 58 57 55 54 52 52 51 52 49 47 46 45 45 44 43
12 11 11 12 12 15 17 20 22 25 30 33 35 36 40 43 47 50 53 54 54 55 56 54 53 54 55 56 57 56 57 56 55 56 55 55 53 54 54 53 52 51 50 49
Wind_Direction_850mb
164 160 167 179 183 183 198 218 188 229 225 223 190 198 151 178 248 289 302 304 317 331 333 331 331 330 316 308 301 294 284 272 261 253 255 253 253 253 252 248 248 250 253 253
2 162 165 184 184 191 201 214 224 242 270 196 180 183 203 268 287 286 300 302 311 316 317 317 316 315 308 304 302 290 280 275 266 258 256 258 256 256 254 251 250 249 247 250
156 79 88 326 199 199 209 206 216 210 226 120 126 144 191 243 263 269 275 290 302 306 306 307 307 304 297 296 292 291 282 269 262 263 260 260 264 265 263 262 260 255 251 246
138 114 190 251 179 204 210 208 217 233 203 194 205 237 250 250 272 278 284 287 287 290 296 294 294 297 289 289 288 282 274 267 265 266 269 270 269 269 268 264 262 258 252 247
149 209 284 206 210 190 182 222 218 224 226 231 246 256 258 266 268 269 275 275 280 291 297 294 292 295 293 303 303 297 289 279 274 273 275 275 276 276 276 273 266 258 256 249
149 158 210 216 173 181 100 263 204 209 214 219 218 228 188 226 245 237 249 258 260 271 293 310 316 311 299 297 295 288 278 271 265 265 267 271 275 274 273 268 267 260 259 252
176 208 262 201 165 131 147 234 196 205 209 199 178 214 198 189 181 184 177 140 112 105 71 40 15 351 330 321 312 302 289 279 270 265 267 270 271 270 268 268 263 261 259 254
128 152 253 168 146 156 193 162 173 175 199 195 190 174 173 173 182 177 164 144 136 104 77 53 37 25 20 4 353 334 318 311 304 296 287 279 275 272 266 267 267 264 260 256
190 192 211 170 170 180 176 165 172 169 174 181 172 172 177 178 174 166 156 152 130 104 86 67 43 20 8 359 347 337 331 327 319 308 298 289 282 279 276 271 271 269 265 261
108 205 167 184 170 174 178 183 170 167 163 171 175 176 172 169 165 163 153 147 118 100 86 68 54 28 7 357 346 338 336 334 329 327 329 319 304 294 285 282 280 278 276 271
103 11 81 182 194 197 183 178 174 169 169 169 168 165 170 167 164 157 151 141 135 120 88 61 45 30 19 5 354 349 347 344 338 335 335 331 326 320 310 301 291 288 284 279
215 175 173 196 196 192 187 179 179 172 165 166 174 168 164 159 152 147 139 125 114 93 74 63 49 33 26 20 14 12 11 8 5 360 353 344 338 333 330 323 312 302 294 287
357 185 185 193 193 188 183 175 170 170 171 168 163 167 163 158 149 140 129 116 101 87 77 70 60 54 44 36 32 27 22 20 18 14 8 0 353 345 339 334 325 317 306 297
115 127 123 162 171 183 182 171 168 162 162 162 161 155 154 150 143 142 135 125 114 103 91 70 52 42 43 34 32 28 22 19 16 15 13 12 8 2 355 347 342 336 323 312
55 51 190 172 169 167 168 162 158 155 155 152 154 155 154 151 145 141 137 129 117 102 85 73 66 57 44 39 28 24 23 19 16 14 11 7 5 1 357 353 346 340 336 332
52 131 150 164 161 160 162 160 160 151 154 153 154 150 148 147 144 142 139 134 119 121 95 73 57 56 49 37 29 21 16 14 9 3 2 360 357 355 352 349 345 341 337 334
115 94 137 143 152 151 153 157 156 152 151 149 148 147 146 145 143 141 137 132 128 121 103 88 67 49 31 22 14 7 4 359 0 354 351 350 348 347 344 342 339 337 334 330
105 119 147 149 143 143 141 145 146 147 148 150 152 151 148 144 144 143 143 142 139 125 109 91 51 19 5 358 352 350 347 345 342 339 339 336 335 334 332 330 328 325 323 320
116 124 133 136 135 138 135 137 141 142 140 140 142 147 150 149 147 145 144 141 138 124 95 40 356 342 334 331 329 327 326 325 324 322 321 320 319 318 317 317 316 314 313 311
109 120 128 129 129 132 131 129 130 137 140 140 143 142 145 148 149 149 146 148 152 189 298 299 306 309 309 310 311 313 315 315 316 315 314 312 311 311 312 312 311 311 311 310
101 109 117 124 127 128 130 133 138 141 143 148 149 150 149 152 160 172 188 217 248 273 285 291 292 294 299 302 306 308 310 310 311 311 310 311 311 312 313 313 312 312 310 308
94 105 112 118 124 127 129 133 137 142 152 164 167 169 174 180 196 216 242 258 268 277 282 286 290 293 296 297 299 302 304 305 305 306 306 307 309 312 315 317 317 316 313 311
85 98 109 119 125 131 138 146 160 168 169 172 179 189 203 224 239 253 262 269 275 278 283 287 289 291 294 297 299 301 302 302 301 300 300 302 306 309 311 313 315 315 315 313
79 87 94 110 123 139 147 155 171 185 201 216 232 239 244 253 261 266 271 275 278 280 283 285 288 289 291 292 293 293 294 294 294 295 297 299 301 302 304 306 308 311 312 311
68 85 97 115 139 154 177 213 231 237 243 251 260 265 269 272 273 276 277 279 281 284 286 288 289 289 290 291 291 291 291 291 290 290 291 292 294 297 300 302 304 305 306 307
19 13 8 342 292 258 259 265 273 272 272 273 279 281 281 280 279 280 282 284 286 288 288 289 289 289 290 290 291 291 291 290 290 290 290 293 295 296 296 298 299 301 303 305
343 337 329 314 304 298 295 293 285 283 282 281 281 284 283 283 283 284 283 284 284 284 285 286 287 288 289 290 290 290 290 290 291 292 291 292 292 294 295 295 296 297 298 299